QPF
0.00 0.00 0.00 0.00 0.00 0.00 0.00 0.00 0.00 0.00 0.00 0.00 0.00 0.00 0.00 0.00 0.00 0.00 0.00 0.00 0.00 0.00 0.00 0.00 0.00 0.00 0.00 0.00 0.00 0.00 0.00 0.00
0.00 0.00 0.00 0.00 0.00 0.00 0.00 0.00 0.00 0.00 0.00 0.00 0.00 0.00 0.00 0.00 0.00 0.00 0.00 0.00 0.00 0.00 0.00 0.00 0.00 0.00 0.00 0.00 0.00 0.00 0.00 0.00
0.00 0.00 0.00 0.00 0.00 0.00 0.00 0.00 0.00 0.00 0.00 0.00 0.00 0.00 0.00 0.00 0.00 0.00 0.00 0.00 0.00 0.00 0.00 0.00 0.00 0.00 0.00 0.00 0.00 0.00 0.00 0.00
0.00 0.00 0.00 0.00 0.00 0.00 0.00 0.00 0.00 0.00 0.00 0.00 0.00 0.00 0.00 0.00 0.00 0.00 0.00 0.00 0.00 0.00 0.00 0.00 0.00 0.00 0.00 0.00 0.00 0.00 0.00 0.00
0.00 0.00 0.00 0.00 0.00 0.00 0.00 0.00 0.00 0.00 0.00 0.00 0.00 0.00 0.00 0.00 0.00 0.00 0.00 0.00 0.00 0.00 0.00 0.00 0.00 0.00 0.00 0.00 0.00 0.00 0.00 0.00
0.00 0.00 0.00 0.00 0.00 0.00 0.00 0.00 0.00 0.00 0.00 0.00 0.00 0.00 0.00 0.00 0.00 0.00 0.00 0.00 0.00 0.00 0.00 0.00 0.00 0.00 0.00 0.00 0.00 0.00 0.00 0.00
0.00 0.00 0.00 0.00 0.00 0.00 0.00 0.00 0.00 0.00 0.00 0.00 0.00 0.00 0.00 0.00 0.00 0.00 0.00 0.00 0.00 0.00 0.00 0.00 0.00 0.00 0.00 0.00 0.00 0.00 0.00 0.00
0.00 0.00 0.00 0.00 0.00 0.00 0.00 0.00 0.00 0.00 0.00 0.00 0.00 0.00 0.00 0.00 0.00 0.00 0.00 0.00 0.00 0.00 0.00 0.00 0.00 0.00 0.00 0.00 0.00 0.00 0.00 0.00
0.00 0.00 0.00 0.00 0.00 0.00 0.00 0.00 0.00 0.00 0.00 0.00 0.00 0.00 0.00 0.00 0.00 0.00 0.00 0.00 0.00 0.00 0.00 0.00 0.01 0.01 0.01 0.01 0.00 0.00 0.00 0.00
0.00 0.00 0.00 0.00 0.00 0.00 0.00 0.00 0.00 0.00 0.00 0.00 0.00 0.00 0.00 0.00 0.00 0.00 0.00 0.00 0.00 0.00 0.00 0.03 0.06 0.03 0.04 0.01 0.00 0.00 0.00 0.00
0.00 0.00 0.00 0.00 0.00 0.00 0.00 0.00 0.00 0.00 0.00 0.00 0.00 0.00 0.00 0.00 0.00 0.00 0.00 0.00 0.00 0.00 0.00 0.04 0.03 0.01 0.00 0.00 0.01 0.00 0.00 0.00
0.00 0.00 0.00 0.00 0.00 0.00 0.00 0.00 0.00 0.00 0.00 0.00 0.00 0.00 0.00 0.00 0.00 0.00 0.00 0.00 0.00 0.00 0.00 0.00 0.00 0.00 0.00 0.00 0.00 0.00 0.00 0.00
0.00 0.00 0.00 0.00 0.00 0.00 0.00 0.00 0.00 0.00 0.00 0.00 0.00 0.00 0.00 0.00 0.00 0.00 0.00 0.00 0.00 0.01 0.03 0.06 0.10 0.07 0.03 0.02 0.00 0.00 0.00 0.00
0.00 0.00 0.00 0.00 0.00 0.00 0.00 0.00 0.00 0.00 0.00 0.00 0.00 0.00 0.00 0.00 0.00 0.00 0.01 0.02 0.06 0.08 0.08 0.08 0.07 0.06 0.04 0.03 0.00 0.00 0.00 0.00
0.00 0.00 0.00 0.00 0.00 0.00 0.00 0.00 0.00 0.00 0.00 0.00 0.00 0.00 0.00 0.00 0.00 0.00 0.02 0.05 0.07 0.03 0.01 0.03 0.06 0.01 0.00 0.01 0.00 0.00 0.00 0.00
0.00 0.00 0.00 0.00 0.00 0.00 0.00 0.00 0.00 0.00 0.00 0.00 0.00 0.00 0.00 0.00 0.00 0.00 0.01 0.01 0.02 0.02 0.01 0.02 0.01 0.00 0.00 0.00 0.00 0.00 0.00 0.00
0.00 0.00 0.00 0.00 0.00 0.00 0.00 0.00 0.00 0.00 0.00 0.00 0.00 0.00 0.00 0.00 0.00 0.01 0.01 0.00 0.00 0.00 0.00 0.01 0.01 0.01 0.00 0.00 0.00 0.00 0.00 0.00
0.00 0.00 0.00 0.00 0.00 0.00 0.00 0.00 0.00 0.00 0.00 0.01 0.00 0.00 0.01 0.09 0.03 0.01 0.02 0.02 0.00 0.00 0.00 0.00 0.00 0.00 0.00 0.00 0.00 0.00 0.00 0.00
0.00 0.00 0.00 0.00 0.00 0.00 0.00 0.00 0.00 0.00 0.00 0.01 0.00 0.03 0.11 0.09 0.02 0.01 0.01 0.00 0.00 0.00 0.00 0.00 0.00 0.00 0.00 0.00 0.00 0.00 0.00 0.00
0.00 0.00 0.00 0.00 0.00 0.00 0.00 0.00 0.00 0.00 0.00 0.02 0.05 0.07 0.07 0.02 0.01 0.01 0.00 0.00 0.00 0.00 0.00 0.00 0.00 0.00 0.00 0.00 0.00 0.00 0.00 0.00
MSLP
1009.54 1010.43 1011.21 1011.81 1012.31 1012.81 1013.10 1013.63 1014.08 1014.58 1014.95 1015.36 1015.91 1016.19 1016.36 1016.67 1017.06 1017.35 1017.50 1017.72 1017.88 1017.92 1017.95 1018.27 1018.45 1018.49 1018.48 1018.40 1018.34 1018.12 1017.57 1016.30
1009.45 1010.12 1010.89 1011.58 1012.33 1012.83 1013.25 1013.69 1014.28 1014.77 1015.18 1015.55 1016.01 1016.38 1016.63 1016.83 1017.21 1017.54 1017.76 1017.92 1018.02 1018.12 1018.23 1018.43 1018.56 1018.57 1018.56 1018.50 1018.29 1017.96 1017.17 1016.08
1009.12 1009.77 1010.57 1011.34 1012.00 1012.81 1013.42 1013.98 1014.48 1014.97 1015.44 1015.76 1016.16 1015.91 1016.47 1016.84 1016.80 1017.36 1017.85 1018.06 1018.23 1018.29 1018.39 1018.59 1018.69 1018.60 1018.52 1018.40 1018.16 1016.74 1016.32 1016.11
1008.67 1009.38 1010.25 1010.97 1011.39 1012.51 1013.12 1013.70 1014.20 1014.61 1015.07 1015.58 1015.38 1015.23 1015.78 1015.93 1016.60 1017.50 1017.94 1018.16 1018.30 1018.43 1018.54 1018.58 1018.56 1017.25 1017.69 1017.97 1017.19 1016.59 1016.52 1016.20
1008.00 1008.97 1009.77 1010.50 1010.72 1011.90 1012.45 1013.04 1013.48 1014.00 1014.47 1015.00 1014.89 1014.76 1015.40 1015.58 1016.30 1017.06 1017.40 1018.05 1017.75 1018.13 1018.24 1017.87 1016.81 1016.55 1016.35 1016.64 1016.57 1016.90 1016.11 1016.09
1007.58 1008.39 1009.30 1010.03 1010.12 1011.19 1011.62 1012.00 1012.63 1013.02 1013.57 1014.29 1014.36 1014.35 1014.77 1015.17 1015.17 1015.85 1016.18 1016.50 1016.25 1016.57 1016.21 1016.36 1016.54 1016.70 1016.80 1016.76 1016.86 1016.65 1016.05 1015.92
1007.16 1008.01 1008.72 1009.55 1009.94 1010.31 1010.84 1011.14 1011.78 1012.13 1012.64 1013.57 1013.81 1013.83 1014.28 1014.70 1014.58 1014.93 1015.05 1015.13 1015.44 1015.39 1015.71 1015.93 1016.28 1016.28 1016.53 1016.65 1016.63 1016.68 1016.54 1016.33
1006.94 1007.58 1008.36 1009.19 1009.66 1010.04 1010.52 1010.73 1011.01 1011.94 1011.99 1012.61 1013.54 1013.62 1013.88 1014.22 1014.37 1014.54 1014.47 1014.52 1014.80 1015.06 1015.07 1015.58 1015.76 1015.52 1016.07 1016.34 1016.46 1016.46 1016.54 1016.45
1006.31 1007.09 1007.91 1008.83 1009.38 1009.77 1010.30 1010.47 1011.08 1012.62 1012.84 1013.38 1013.71 1013.67 1013.67 1014.05 1014.24 1014.48 1014.35 1014.54 1014.78 1015.07 1015.16 1015.21 1015.69 1015.96 1016.11 1016.51 1016.18 1016.33 1016.29 1016.47
1005.75 1006.66 1007.31 1008.24 1008.82 1009.27 1009.86 1010.30 1011.06 1012.33 1012.55 1013.58 1014.05 1013.72 1013.48 1014.03 1014.05 1014.27 1014.20 1014.47 1014.73 1014.84 1015.15 1015.42 1015.78 1015.96 1016.09 1016.04 1016.22 1015.85 1016.23 1016.20
1004.92 1006.33 1007.05 1007.80 1008.55 1008.93 1009.68 1010.14 1010.99 1011.12 1012.04 1012.42 1013.11 1013.40 1013.35 1013.56 1013.74 1013.97 1014.27 1014.28 1014.35 1014.72 1015.02 1015.41 1015.81 1015.66 1015.53 1015.79 1015.97 1016.22 1016.00 1015.74
1004.03 1005.59 1006.87 1007.76 1008.28 1008.90 1009.09 1009.63 1010.28 1010.47 1011.01 1011.25 1011.85 1012.58 1012.95 1013.39 1013.37 1013.67 1014.08 1014.10 1014.27 1014.61 1014.80 1015.12 1015.16 1015.19 1015.29 1015.46 1015.64 1015.80 1015.80 1015.83
1003.07 1004.45 1005.82 1007.13 1007.43 1007.74 1007.93 1008.42 1009.21 1009.75 1009.99 1010.47 1011.08 1011.95 1012.40 1012.95 1013.22 1013.52 1013.68 1013.84 1014.19 1014.57 1014.81 1014.92 1015.34 1015.51 1015.60 1015.31 1015.23 1015.19 1015.31 1015.34
1002.08 1003.12 1004.39 1005.65 1006.26 1006.54 1007.07 1007.53 1008.14 1008.80 1009.30 1010.01 1010.70 1011.57 1011.99 1012.60 1012.82 1012.89 1013.35 1013.52 1013.82 1014.21 1014.87 1015.20 1015.39 1015.71 1015.63 1015.54 1015.12 1014.76 1014.60 1014.85
1000.85 1001.81 1002.89 1004.24 1004.96 1005.74 1006.46 1007.00 1007.47 1008.11 1008.71 1009.47 1010.29 1011.05 1011.49 1011.98 1012.34 1012.52 1013.04 1013.54 1014.01 1014.38 1014.80 1014.96 1015.41 1016.05 1016.14 1015.93 1015.69 1014.98 1014.77 1014.60
999.90 1000.75 1001.80 1002.98 1004.16 1004.29 1005.04 1005.29 1005.73 1006.48 1007.50 1008.64 1009.52 1010.33 1010.93 1011.43 1011.92 1012.38 1012.82 1013.40 1013.97 1014.48 1014.91 1015.24 1015.65 1016.12 1016.57 1016.81 1016.59 1016.28 1015.71 1015.26
999.13 999.74 1000.64 1001.65 1003.04 1003.31 1003.91 1004.61 1005.13 1005.93 1007.05 1007.99 1008.89 1009.97 1010.47 1011.02 1011.61 1012.31 1013.07 1013.82 1014.37 1014.83 1015.28 1015.70 1015.96 1016.22 1016.15 1016.53 1016.68 1016.70 1016.83 1016.58
998.48 998.95 999.48 1000.47 1001.78 1002.83 1003.16 1003.78 1004.34 1005.13 1006.29 1007.47 1008.51 1009.63 1010.50 1011.28 1012.09 1012.71 1013.54 1014.20 1014.62 1014.94 1015.22 1015.45 1015.58 1015.55 1015.56 1015.83 1016.04 1016.28 1016.35 1016.52
997.23 997.94 998.38 999.30 1000.39 1001.69 1002.52 1003.10 1003.81 1004.43 1005.69 1007.42 1008.82 1009.93 1010.67 1011.40 1011.87 1012.73 1013.37 1013.87 1014.27 1014.58 1014.89 1015.36 1015.68 1015.92 1016.26 1016.62 1016.92 1017.08 1017.64 1017.69
996.19 996.98 997.64 998.30 999.40 1000.58 1001.73 1002.59 1003.23 1004.05 1005.62 1007.39 1008.75 1009.56 1010.31 1011.04 1011.59 1012.27 1012.91 1013.57 1014.09 1014.67 1015.33 1015.95 1016.52 1016.84 1017.16 1017.32 1017.56 1018.01 1018.35 1018.53
Thickness
5763 5756 5750 5746 5744 5741 5740 5736 5732 5727 5723 5720 5716 5713 5712 5711 5708 5705 5705 5703 5702 5701 5701 5698 5696 5695 5696 5697 5697 5699 5700 5708
5760 5754 5747 5743 5740 5738 5736 5733 5727 5723 5720 5717 5713 5711 5709 5708 5706 5704 5703 5702 5700 5700 5699 5697 5696 5695 5696 5697 5697 5699 5703 5710
5760 5753 5747 5742 5738 5734 5732 5728 5724 5720 5716 5713 5710 5711 5708 5705 5706 5704 5701 5699 5698 5698 5697 5696 5695 5696 5696 5697 5700 5708 5710 5711
5759 5754 5747 5742 5740 5733 5729 5726 5722 5719 5715 5712 5713 5714 5711 5709 5706 5701 5698 5697 5696 5696 5695 5695 5695 5703 5701 5701 5705 5709 5709 5711
5761 5753 5747 5743 5743 5735 5732 5728 5725 5720 5717 5713 5714 5716 5712 5710 5706 5701 5699 5695 5697 5696 5695 5697 5705 5707 5709 5707 5707 5705 5711 5710
5760 5756 5749 5744 5744 5737 5735 5733 5729 5726 5722 5717 5716 5717 5714 5712 5713 5708 5706 5704 5706 5705 5708 5707 5705 5705 5704 5704 5703 5705 5709 5710
5759 5756 5752 5746 5743 5742 5739 5738 5733 5730 5726 5720 5718 5719 5717 5713 5715 5713 5713 5713 5711 5712 5711 5708 5706 5706 5704 5703 5702 5701 5703 5703
5757 5755 5752 5746 5742 5741 5738 5737 5736 5729 5729 5724 5718 5717 5716 5715 5715 5714 5715 5716 5714 5712 5713 5709 5708 5709 5705 5702 5700 5700 5699 5699
5756 5754 5751 5745 5741 5740 5736 5736 5733 5721 5719 5716 5714 5714 5715 5713 5713 5712 5713 5712 5711 5709 5708 5707 5705 5702 5701 5697 5698 5697 5697 5695
5756 5753 5751 5746 5742 5740 5736 5733 5728 5720 5719 5712 5709 5711 5714 5710 5711 5711 5712 5710 5708 5707 5705 5702 5700 5697 5696 5698 5696 5697 5694 5694
5756 5748 5745 5743 5739 5738 5733 5730 5724 5725 5718 5717 5712 5711 5711 5710 5710 5709 5707 5708 5709 5706 5703 5699 5695 5695 5697 5696 5694 5691 5692 5692
5758 5748 5740 5736 5735 5732 5732 5728 5725 5726 5722 5721 5717 5712 5711 5708 5709 5707 5704 5706 5705 5704 5701 5699 5697 5695 5694 5692 5691 5691 5690 5689
5759 5750 5742 5733 5732 5730 5732 5729 5726 5725 5726 5722 5718 5712 5710 5707 5705 5704 5703 5704 5702 5700 5697 5694 5690 5689 5686 5687 5689 5690 5688 5687
5760 5756 5747 5739 5736 5736 5733 5732 5730 5726 5725 5722 5717 5711 5709 5704 5703 5705 5703 5703 5700 5698 5691 5686 5685 5683 5679 5678 5675 5681 5683 5685
5765 5761 5753 5744 5741 5735 5730 5729 5728 5724 5724 5719 5715 5710 5707 5704 5702 5704 5700 5698 5694 5692 5688 5684 5676 5673 5673 5669 5664 5665 5671 5675
5768 5761 5753 5747 5738 5737 5730 5731 5728 5730 5724 5718 5714 5709 5706 5703 5699 5698 5697 5694 5689 5685 5682 5678 5672 5665 5662 5660 5660 5659 5654 5654
5759 5760 5753 5747 5739 5739 5735 5729 5730 5727 5721 5716 5712 5706 5702 5698 5695 5692 5688 5683 5680 5675 5672 5667 5664 5659 5658 5655 5652 5649 5644 5638
5752 5751 5751 5747 5741 5735 5733 5730 5727 5723 5720 5714 5708 5699 5694 5689 5684 5682 5677 5672 5670 5668 5666 5663 5661 5660 5658 5654 5649 5643 5640 5635
5754 5750 5748 5746 5741 5737 5731 5730 5725 5722 5717 5707 5695 5688 5684 5679 5679 5674 5670 5668 5665 5663 5661 5656 5651 5648 5643 5638 5633 5629 5620 5616
5750 5746 5743 5743 5739 5736 5730 5726 5722 5718 5712 5701 5689 5685 5680 5677 5674 5671 5667 5663 5658 5653 5648 5642 5636 5632 5627 5623 5618 5611 5606 5601